User: anonymous   Login
Location: Barnston
(51.8500°N, 0.4000°E)
Time: 05:33:36
(UTC+00:00)
Language:

COSMOS 2406 - Orbit

View from above orbital plane
View from above orbital plane
View from above satellite
View from above satellite

Ground track
Ground track

The orbit data is extracted from the following two-line orbital elements,

1 28352U 04021A   24060.37692410  .00000288  00000-0  18328-3 0  9994
2 28352  71.0065  52.1363 0015239 337.8964  22.1498 14.11907555 16305
Epoch (UTC): 29 February 2024 09:02:46
Eccentricity: 0.0015239
inclination: 71.0065°
perigee height: 842 km
apogee height: 864 km
right ascension of ascending node: 52.1363°
argument of perigee: 337.8964°
revolutions per day: 14.11907555
mean anomaly at epoch: 22.1498°
orbit number at epoch: 1630

The dashed part of the orbit path shows where the satellite is in the earth's shadow,  

DLR